Regional Weather Roundup
Issued by NWS

Home | Current Version | Previous Version | Text Only | Print | Product List | Glossary On
Versions: 1 2 3 4 5 6 7 8 9 10 11 12 13 14 15 16 17 18 19 20 21 22 23 24 25 26 27 28 29 30 31 32 33 34 35 36 37 38 39 40 41 42 43 44 45 46 47 48 49 50
375
ASUS44 KJAN 181003
RWRMS

MISSISSIPPI HOURLY WEATHER ROUNDUP
NATIONAL WEATHER SERVICE JACKSON MS
500 AM CDT SAT APR 18 2015

NOTE: "FAIR: INDICATES FEW OR NO CLOUDS BELOW 12,000 FEET WITH NO
SIGNIFICANT WEATHER AND/OR OBSTRUCTIONS TO VISIBILITY.

MSZ001>002-007>008-010>013-018>021-025>028-034>036-181100-
NORTHWEST MISSISSIPPI

CITY           SKY/WX    TMP DP  RH WIND       PRES   REMARKS
CLARKSDALE       N/A     63  63 100 CALM      29.97F
CLEVELAND      FAIR      64  64 100 E5        29.94F
GREENWOOD      CLOUDY    62  59  90 NE5       29.94F
GREENVILLE     CLOUDY    65  63  93 E5        29.93F
OLIVE BRANCH     N/A     57 N/A N/A CALM      29.99F VSB 1/2
OXFORD         FOG       55  55 100 CALM      29.99F VSB 1
TUNICA         CLOUDY    63  61  94 E3        29.98S FOG
$$

MSZ003>006-009-014>017-022>024-029>033-037>039-181100-
NORTHEAST MISSISSIPPI

CITY           SKY/WX    TMP DP  RH WIND       PRES   REMARKS
COLUMBUS AFB   CLOUDY    62  62 100 NE2       29.97S
CORINTH        FOG       57  57 100 CALM      30.00R VSB 1/4
GOLDN TRIANGLE CLOUDY    61  61 100 CALM      29.96F VSB 3/4
STARKVILLE     CLOUDY    61  61 100 CALM      29.97S FOG
TUPELO         FOG       61  59  93 E6        29.99R VSB 3/4
$$

MSZ040-058-181100-
CENTRAL MISSISSIPPI

CITY           SKY/WX    TMP DP  RH WIND       PRES   REMARKS
JACKSON INTL   CLOUDY    66  62  87 SE5       29.95F
JACKSON HAWKNS CLOUDY    65  62  90 SE8       29.95F
MERIDIAN KEY   CLOUDY    64  61  90 E6        29.95F
MERIDIAN NAS   CLOUDY    64  61  90 NE6       29.95F
RAYMOND        CLOUDY    66  61  82 E5        29.94F
VICKSBURG      CLOUDY    67  64  90 E7        29.92F
$$

MSZ059>079-181100-
SOUTH MISSISSIPPI

CITY           SKY/WX    TMP DP  RH WIND       PRES   REMARKS
BROOKHAVEN     CLOUDY    66  66 100 CALM      29.94F
HATTIESBURG    CLOUDY    66  64  93 NE6       29.94F
MCCOMB         CLOUDY    67  67 100 CALM      29.94R FOG
NATCHEZ        CLOUDY    66  63  88 SE5       29.90F
PINE BELT      CLOUDY    63  61  94 NE5       29.95F
$$

MSZ080>082-181100-
COASTAL MISSISSIPPI

CITY           SKY/WX    TMP DP  RH WIND       PRES   REMARKS
BILOXI         LGT RAIN  69  69 100 NE5       29.92R
PASCAGOULA     FOG       68  68 100 NE3       29.92S VSB 1/2
GULFPORT       LGT RAIN  69  68  96 N5        29.91R FOG
$$



USA.gov is the U.S. government's official web portal to all federal, state and local government web resources and services.